When you browse on this site, cookies collect data to enhance your experience and personalize the content and advertising you see.
Visit our Privacy Policy to learn more. By continuing to use the site, you agree to this use of cookies and data.
  • în România
  • Lista ţărilor
  • Pe 7 zile
  • Temperatura apei
  • Meteo pe hartă
  • Widget-uri
  • user-avatar
    Intrare

    Meteo pe oră la Al Hilla

    Astăzi, 27 Februarie, Joi

    Timp Temperatura Precipitaţii Vânt Presiune Umiditate
    00:00 +14°C° 0 mm 1 m/s 761 mmHg 52%
    01:00 +13°C° 0 mm 1 m/s 761 mmHg 53%
    02:00 +13°C° 0 mm 1 m/s 761 mmHg 54%
    03:00 +12°C° 0 mm 0 m/s 762 mmHg 53%
    04:00 +13°C° 0 mm 1 m/s 762 mmHg 53%
    05:00 +12°C° 0 mm 1 m/s 762 mmHg 54%
    06:00 +12°C° 0 mm 1 m/s 762 mmHg 54%
    07:00 +14°C° 0 mm 1 m/s 762 mmHg 50%
    08:00 +15°C° 0 mm 1 m/s 763 mmHg 45%
    09:00 +16°C° 0 mm 2 m/s 763 mmHg 41%
    10:00 +18°C° 0 mm 2 m/s 763 mmHg 39%
    11:00 +19°C° 0 mm 2 m/s 763 mmHg 36%
    12:00 +20°C° 0 mm 2 m/s 763 mmHg 34%
    13:00 +21°C° 0 mm 2 m/s 762 mmHg 33%
    14:00 +22°C° 0 mm 3 m/s 761 mmHg 32%
    15:00 +22°C° 0 mm 3 m/s 761 mmHg 30%
    16:00 +22°C° 0 mm 3 m/s 761 mmHg 33%
    17:00 +21°C° 0 mm 3 m/s 761 mmHg 36%
    18:00 +20°C° 0 mm 3 m/s 761 mmHg 38%
    19:00 +19°C° 0 mm 3 m/s 761 mmHg 40%
    20:00 +18°C° 0 mm 3 m/s 761 mmHg 42%
    21:00 +18°C° 0 mm 3 m/s 761 mmHg 44%
    22:00 +17°C° 0 mm 3 m/s 760 mmHg 46%
    23:00 +17°C° 0 mm 3 m/s 760 mmHg 48%

    Mâine, 28 Februarie, Vineri

    Timp Temperatura Precipitaţii Vânt Presiune Umiditate
    00:00 +17°C° 0 mm 2 m/s 760 mmHg 50%
    01:00 +16°C° 0 mm 3 m/s 760 mmHg 51%
    02:00 +16°C° 0 mm 3 m/s 760 mmHg 52%
    03:00 +16°C° 0 mm 3 m/s 759 mmHg 54%
    04:00 +15°C° 0 mm 2 m/s 760 mmHg 55%
    05:00 +15°C° 0 mm 2 m/s 760 mmHg 56%
    06:00 +15°C° 0 mm 2 m/s 760 mmHg 57%
    07:00 +16°C° 0 mm 2 m/s 760 mmHg 54%
    08:00 +17°C° 0 mm 2 m/s 760 mmHg 50%
    09:00 +18°C° 0 mm 2 m/s 760 mmHg 47%
    10:00 +20°C° 0 mm 2 m/s 760 mmHg 43%
    11:00 +21°C° 0 mm 2 m/s 760 mmHg 38%
    12:00 +23°C° 0 mm 2 m/s 760 mmHg 34%
    13:00 +23°C° 0 mm 2 m/s 759 mmHg 32%
    14:00 +24°C° 0 mm 2 m/s 759 mmHg 30%
    15:00 +24°C° 0 mm 2 m/s 758 mmHg 28%
    16:00 +24°C° 0 mm 2 m/s 758 mmHg 30%
    17:00 +23°C° 0 mm 2 m/s 758 mmHg 32%
    18:00 +21°C° 0 mm 2 m/s 758 mmHg 35%
    19:00 +20°C° 0 mm 2 m/s 758 mmHg 36%
    20:00 +19°C° 0 mm 2 m/s 758 mmHg 38%
    21:00 +19°C° 0 mm 2 m/s 758 mmHg 39%
    22:00 +19°C° 0 mm 1 m/s 758 mmHg 41%
    23:00 +18°C° 0 mm 1 m/s 757 mmHg 43%

    Poimâine, 29 Februarie, Sâmbătă

    Timp Temperatura Precipitaţii Vânt Presiune Umiditate
    00:00 +18°C° 0 mm 1 m/s 757 mmHg 44%
    01:00 +16°C° 0 mm 1 m/s 757 mmHg 46%
    02:00 +16°C° 0 mm 1 m/s 756 mmHg 48%
    03:00 +16°C° 0 mm 1 m/s 756 mmHg 49%
    04:00 +15°C° 0 mm 1 m/s 756 mmHg 51%
    05:00 +15°C° 0 mm 1 m/s 756 mmHg 52%
    06:00 +14°C° 0 mm 1 m/s 756 mmHg 53%
    07:00 +16°C° 0 mm 1 m/s 756 mmHg 48%
    08:00 +19°C° 0 mm 1 m/s 756 mmHg 42%
    09:00 +21°C° 0 mm 1 m/s 756 mmHg 37%
    10:00 +21°C° 0 mm 2 m/s 756 mmHg 34%
    11:00 +23°C° 0 mm 2 m/s 755 mmHg 30%
    12:00 +24°C° 0 mm 2 m/s 755 mmHg 27%
    13:00 +25°C° 0 mm 2 m/s 755 mmHg 25%
    14:00 +26°C° 0 mm 2 m/s 754 mmHg 23%
    15:00 +26°C° 0 mm 2 m/s 753 mmHg 21%
    16:00 +25°C° 0 mm 2 m/s 753 mmHg 23%
    17:00 +24°C° 0 mm 2 m/s 753 mmHg 25%
    18:00 +23°C° 0 mm 2 m/s 753 mmHg 27%
    19:00 +23°C° 0 mm 2 m/s 754 mmHg 28%
    20:00 +21°C° 0 mm 2 m/s 754 mmHg 29%
    21:00 +21°C° 0 mm 3 m/s 754 mmHg 29%
    22:00 +20°C° 0 mm 3 m/s 754 mmHg 30%
    23:00 +20°C° 0 mm 3 m/s 754 mmHg 32%

    1 Martie, Duminică

    Timp Temperatura Precipitaţii Vânt Presiune Umiditate
    00:00 +19°C° 0 mm 3 m/s 754 mmHg 33%
    01:00 +19°C° 0 mm 3 m/s 754 mmHg 35%
    02:00 +18°C° 0 mm 3 m/s 754 mmHg 37%
    03:00 +18°C° 0 mm 3 m/s 754 mmHg 39%
    04:00 +17°C° 0 mm 4 m/s 754 mmHg 42%
    05:00 +15°C° 0 mm 4 m/s 754 mmHg 46%
    06:00 +15°C° 0 mm 4 m/s 754 mmHg 49%
    07:00 +16°C° 0 mm 5 m/s 755 mmHg 47%
    08:00 +16°C° 0 mm 6 m/s 755 mmHg 46%
    09:00 +17°C° 0 mm 6 m/s 756 mmHg 44%
    10:00 +18°C° 0 mm 7 m/s 756 mmHg 41%
    11:00 +20°C° 0 mm 7 m/s 756 mmHg 38%
    12:00 +21°C° 0 mm 7 m/s 755 mmHg 35%
    13:00 +21°C° 0 mm 8 m/s 755 mmHg 32%
    14:00 +20°C° 0 mm 8 m/s 755 mmHg 29%
    15:00 +20°C° 0 mm 8 m/s 755 mmHg 25%
    16:00 +18°C° 0 mm 7 m/s 755 mmHg 28%
    17:00 +18°C° 0 mm 7 m/s 755 mmHg 30%
    18:00 +17°C° 0 mm 6 m/s 756 mmHg 33%
    19:00 +16°C° 0 mm 5 m/s 756 mmHg 37%
    20:00 +16°C° 0 mm 5 m/s 757 mmHg 41%
    21:00 +15°C° 0 mm 4 m/s 758 mmHg 44%
    22:00 +15°C° 0 mm 4 m/s 758 mmHg 47%
    23:00 +14°C° 0 mm 4 m/s 758 mmHg 49%

    2 Martie, Luni

    Timp Temperatura Precipitaţii Vânt Presiune Umiditate
    00:00 +14°C° 0 mm 4 m/s 758 mmHg 52%
    01:00 +14°C° 0 mm 4 m/s 758 mmHg 53%
    02:00 +13°C° 0 mm 4 m/s 758 mmHg 55%
    03:00 +13°C° 0 mm 4 m/s 758 mmHg 57%
    04:00 +13°C° 0 mm 4 m/s 758 mmHg 57%
    05:00 +12°C° 0 mm 4 m/s 759 mmHg 58%
    06:00 +12°C° 0 mm 4 m/s 759 mmHg 59%
    07:00 +13°C° 0 mm 4 m/s 759 mmHg 55%
    08:00 +14°C° 0 mm 5 m/s 760 mmHg 51%
    09:00 +15°C° 0 mm 6 m/s 761 mmHg 48%
    10:00 +16°C° 0 mm 6 m/s 761 mmHg 44%
    11:00 +17°C° 0 mm 6 m/s 761 mmHg 39%
    12:00 +19°C° 0 mm 5 m/s 761 mmHg 35%
    13:00 +20°C° 0 mm 6 m/s 760 mmHg 32%
    14:00 +20°C° 0 mm 6 m/s 760 mmHg 28%
    15:00 +20°C° 0 mm 6 m/s 760 mmHg 25%
    16:00 +19°C° 0 mm 5 m/s 760 mmHg 26%
    17:00 +19°C° 0 mm 5 m/s 760 mmHg 27%
    18:00 +18°C° 0 mm 4 m/s 760 mmHg 28%
    19:00 +17°C° 0 mm 3 m/s 760 mmHg 29%
    20:00 +17°C° 0 mm 3 m/s 761 mmHg 31%
    21:00 +16°C° 0 mm 3 m/s 761 mmHg 33%
    22:00 +15°C° 0 mm 2 m/s 761 mmHg 34%
    23:00 +15°C° 0 mm 2 m/s 761 mmHg 36%

    3 Martie, Marţi

    Timp Temperatura Precipitaţii Vânt Presiune Umiditate
    00:00 +14°C° 0 mm 1 m/s 762 mmHg 37%
    01:00 +14°C° 0 mm 2 m/s 761 mmHg 37%
    02:00 +14°C° 0 mm 2 m/s 761 mmHg 37%
    03:00 +14°C° 0 mm 2 m/s 761 mmHg 37%
    04:00 +13°C° 0 mm 2 m/s 761 mmHg 39%
    05:00 +12°C° 0 mm 3 m/s 762 mmHg 41%
    06:00 +12°C° 0 mm 3 m/s 762 mmHg 42%
    07:00 +13°C° 0 mm 3 m/s 762 mmHg 39%
    08:00 +16°C° 0 mm 3 m/s 763 mmHg 37%
    09:00 +17°C° 0 mm 3 m/s 763 mmHg 34%
    10:00 +18°C° 0 mm 4 m/s 763 mmHg 31%
    11:00 +20°C° 0 mm 4 m/s 763 mmHg 28%
    12:00 +21°C° 0 mm 5 m/s 763 mmHg 26%
    13:00 +21°C° 0 mm 5 m/s 762 mmHg 25%
    14:00 +22°C° 0 mm 6 m/s 762 mmHg 24%
    15:00 +22°C° 0 mm 6 m/s 761 mmHg 23%
    16:00 +21°C° 0 mm 5 m/s 761 mmHg 26%
    17:00 +20°C° 0 mm 5 m/s 761 mmHg 28%
    18:00 +19°C° 0 mm 4 m/s 761 mmHg 30%
    19:00 +19°C° 0 mm 4 m/s 761 mmHg 33%
    20:00 +18°C° 0 mm 4 m/s 762 mmHg 35%
    21:00 +17°C° 0 mm 3 m/s 762 mmHg 37%
    22:00 +16°C° 0 mm 3 m/s 762 mmHg 38%
    23:00 +16°C° 0 mm 3 m/s 762 mmHg 39%
    Arată mai mult